Wind_Speed
34 35 35 34 33 33 33 34 33 31 30 30 30 30 29 29 29 29 29 29 29 29 29 29 29 29 27 26 25 26 26 25 24 25 24 22 21 20 18 19 20 18 17 17 14 13 14 13 12 11 10 9 9 9 9 9 9 10 10 11 12 11 13 13 10 10 13 14 14 15 15 14 15 14 14 15 17 18 20 22 22 23 23 25 26
35 35 35 34 34 33 33 34 33 32 31 31 31 31 31 31 31 29 29 30 31 31 31 31 31 31 30 29 28 28 28 27 26 26 26 24 23 22 20 21 22 21 20 18 17 15 15 14 13 12 11 11 11 11 11 11 10 11 11 11 12 12 13 13 12 10 12 14 13 14 14 14 14 15 14 16 17 17 18 20 21 21 22 23 24
34 35 35 34 34 34 33 33 33 33 32 32 32 31 31 31 31 30 30 30 31 32 33 34 34 34 33 32 31 30 30 30 28 27 28 27 26 25 23 23 23 22 22 21 19 17 16 15 14 13 12 12 13 13 13 12 12 12 12 12 12 12 11 11 11 11 12 15 15 14 15 16 17 18 18 19 19 19 18 19 19 20 21 21 22
33 34 34 33 34 34 33 33 33 33 32 33 33 31 30 30 31 31 31 30 31 33 34 34 35 35 35 34 33 33 32 32 30 29 29 29 28 27 25 24 24 23 24 22 20 18 17 17 15 14 13 13 14 14 14 13 14 14 13 13 12 12 11 10 11 11 12 15 17 18 19 20 21 21 20 20 20 20 19 19 19 20 20 20 20
32 33 34 33 34 35 35 33 33 33 33 32 32 31 29 28 30 32 32 31 32 34 35 35 35 36 37 36 36 35 34 34 33 31 30 29 29 28 27 27 26 25 24 23 21 19 18 17 16 15 14 15 15 14 14 14 14 14 13 13 12 11 11 10 11 12 13 15 18 20 21 22 22 21 20 20 21 21 20 20 21 21 21 21 20
33 33 33 33 35 36 36 34 33 34 34 32 31 31 30 29 30 31 32 31 32 33 35 36 36 37 37 37 37 37 36 36 35 33 31 30 29 28 27 27 27 26 25 23 21 20 19 18 17 16 16 16 15 15 15 15 14 13 13 13 12 11 11 11 11 12 13 14 17 19 20 20 20 20 21 20 20 21 21 21 21 21 21 21 21
34 33 33 33 35 36 36 36 34 34 34 34 31 30 30 30 30 31 32 32 31 31 34 36 36 37 37 37 37 37 36 35 35 34 31 30 29 29 28 27 27 26 25 23 21 20 20 19 18 18 18 17 16 16 15 14 14 14 14 13 12 11 11 11 12 13 14 15 16 17 17 18 18 19 20 19 18 19 19 18 19 20 19 18 19
34 34 33 32 33 35 36 36 35 34 34 34 33 31 30 31 30 31 32 31 30 30 31 33 35 36 37 37 37 37 36 34 34 34 31 29 29 29 29 28 27 25 24 23 22 20 19 19 19 19 19 18 17 17 16 15 15 15 15 14 12 12 12 13 13 14 14 15 16 17 17 18 18 18 19 18 16 16 16 15 17 19 18 17 17
34 34 33 32 32 35 35 35 35 34 33 33 33 32 30 30 30 30 31 31 30 28 28 29 31 33 34 35 34 33 33 33 33 32 31 29 29 29 28 28 27 25 24 23 22 21 20 19 18 18 18 19 19 18 17 17 16 16 15 14 13 14 14 14 14 14 15 15 17 17 17 16 16 16 17 16 15 16 16 16 17 17 17 18 19
33 33 33 32 32 33 33 33 32 32 32 32 32 32 30 28 28 28 29 30 30 27 26 27 27 28 29 32 32 30 30 31 31 32 32 32 31 29 28 27 26 25 24 22 21 21 20 18 16 17 18 19 19 20 20 20 20 19 18 17 17 17 16 16 16 16 15 15 16 17 15 14 15 15 15 16 16 15 15 14 15 15 15 16 17
33 32 33 32 32 33 32 31 31 31 30 30 30 30 28 26 26 26 25 27 28 27 26 26 27 26 26 28 29 28 29 31 33 34 35 35 33 29 27 26 26 25 24 22 21 21 19 17 16 19 21 20 19 19 20 22 22 21 21 21 21 21 20 18 18 17 15 15 16 17 15 14 15 15 15 15 14 13 13 14 15 16 15 13 13
33 32 32 32 32 32 32 30 29 29 29 28 28 27 26 24 23 23 23 23 26 26 25 25 27 27 26 26 27 28 29 31 33 35 36 35 32 28 25 25 25 24 23 21 20 19 17 17 19 21 21 20 18 16 18 21 21 21 22 22 22 23 22 20 19 19 18 17 18 18 17 16 16 16 14 13 13 14 15 15 15 16 15 13 14
33 31 31 32 32 32 31 29 28 28 28 27 25 25 25 24 22 22 22 21 23 25 24 23 24 26 27 27 27 27 27 28 31 34 35 35 32 27 23 22 21 22 23 23 21 19 17 18 20 20 17 15 15 15 17 19 19 20 21 22 23 23 21 20 20 20 21 22 20 19 18 17 15 15 15 14 15 15 15 15 15 15 16 16 17
31 30 30 30 31 31 30 28 27 26 26 25 25 24 24 24 22 21 20 19 20 22 23 21 20 23 26 27 27 26 26 28 31 32 34 35 32 27 22 20 19 20 21 22 22 21 19 18 19 17 15 15 15 17 19 20 19 19 20 20 21 19 18 19 20 20 23 24 23 22 21 20 19 19 18 16 15 14 15 17 18 19 21 22 23
29 29 30 29 30 30 29 27 26 25 25 25 24 23 22 22 21 19 17 16 17 20 21 20 19 20 23 25 26 25 25 27 30 31 33 34 33 29 24 22 21 21 19 17 20 22 21 19 17 15 14 17 17 17 19 19 18 18 18 18 18 18 19 20 19 19 20 20 21 22 22 21 21 20 17 16 17 18 19 20 20 21 23 24 24
28 29 29 28 29 29 28 27 25 25 25 24 22 21 20 20 19 18 18 16 15 16 19 20 19 19 20 22 24 24 23 24 27 31 33 33 33 32 29 26 24 22 19 17 19 22 21 20 19 16 15 19 20 18 17 17 16 15 16 16 17 18 20 19 18 18 18 16 17 19 19 18 18 17 18 18 20 20 19 19 20 21 21 20 20
27 28 28 27 28 28 27 26 24 24 23 22 20 19 18 17 17 18 19 17 13 12 16 19 19 18 19 20 21 22 22 22 26 30 31 30 30 30 30 29 26 24 21 19 19 21 21 20 20 19 17 19 21 20 19 18 16 15 14 15 15 17 17 17 16 17 17 16 17 16 16 16 16 17 18 18 19 19 19 19 22 23 20 16 15
26 26 26 26 26 26 25 24 23 23 22 20 19 18 17 16 16 17 17 16 13 13 16 17 16 16 16 18 21 21 21 23 27 29 28 26 26 27 29 29 25 22 20 19 19 21 22 22 21 20 20 19 19 18 19 18 17 15 14 13 14 15 15 13 13 12 11 10 11 12 13 14 14 15 17 17 18 20 22 24 26 23 18 15 15
26 26 26 26 25 25 25 24 23 23 22 20 19 19 17 16 15 14 14 12 11 13 16 15 13 13 15 19 22 21 20 23 25 25 24 24 23 25 29 27 22 19 18 19 20 21 22 23 22 21 20 19 18 18 18 17 16 14 12 12 12 13 12 10 10 9 9 8 9 11 12 14 16 17 19 19 20 23 26 30 30 25 20 19 20
26 27 27 26 26 25 25 24 24 23 22 21 20 19 18 16 14 13 12 10 10 12 15 15 14 13 15 19 23 24 22 22 23 23 23 23 23 25 28 26 21 19 17 18 20 22 23 22 21 20 19 19 19 18 18 17 15 13 12 11 12 12 12 12 13 13 13 13 14 14 15 16 18 19 19 20 20 20 20 22 24 25 24 22 19
27 28 28 27 26 25 24 24 23 22 22 21 20 19 18 16 15 14 11 10 10 11 13 13 13 14 14 15 19 23 23 22 23 25 25 24 23 25 28 26 21 18 16 17 19 21 21 20 19 20 20 19 18 18 17 15 14 12 12 13 14 14 14 16 17 16 14 13 13 15 16 16 16 16 17 18 17 16 15 14 14 17 18 17 17
29 29 28 27 26 24 24 24 23 21 21 21 20 18 17 16 15 14 11 10 11 11 12 13 12 13 14 15 17 20 22 22 23 24 25 25 25 26 27 25 20 17 16 17 17 17 17 18 18 18 17 15 15 16 14 13 12 12 13 14 15 15 15 15 14 12 11 11 12 13 14 14 14 15 16 16 15 15 15 15 14 16 19 22 24
30 29 28 27 26 25 25 24 22 21 22 22 20 18 17 16 17 16 13 11 11 12 14 14 13 13 16 17 17 17 18 21 23 23 23 25 25 25 24 22 20 18 16 15 16 15 13 14 15 15 13 13 14 15 13 12 12 12 12 13 13 13 12 11 10 10 10 10 12 13 14 14 14 15 14 15 15 15 16 17 19 21 24 25 26
31 29 28 26 25 25 25 24 23 23 24 23 21 19 17 17 17 17 14 11 11 13 15 15 15 16 16 15 15 14 14 18 22 22 21 23 24 24 24 23 23 21 16 13 14 14 12 12 13 13 12 12 12 12 11 12 12 11 11 11 11 10 10 10 10 10 10 11 13 13 13 13 13 14 13 14 15 17 19 21 22 22 22 23 23
30 29 27 26 26 26 24 23 23 24 24 24 23 21 19 17 17 16 13 13 13 14 15 16 16 15 14 13 13 13 12 14 18 20 20 21 22 23 23 23 25 23 16 12 12 11 9 9 10 11 12 11 10 10 11 12 13 13 12 11 10 8 9 10 10 9 10 11 11 11 12 14 15 14 14 17 20 22 22 22 21 20 20 20 22
29 27 26 26 26 26 23 22 22 23 23 23 23 22 21 19 18 16 14 14 15 15 16 16 15 14 13 12 12 12 12 12 16 18 19 20 21 22 22 23 24 22 16 12 10 8 8 8 9 9 9 8 8 10 12 14 14 13 12 11 10 9 9 10 9 9 10 11 10 11 13 15 15 16 17 20 22 21 20 19 20 20 19 19 22
27 25 24 24 24 22 21 20 20 20 19 19 19 20 20 19 18 17 16 15 15 15 15 15 14 13 13 13 13 12 11 12 14 16 18 20 22 23 23 23 22 19 15 12 11 8 8 8 8 7 7 8 11 12 13 13 13 12 12 12 11 10 10 10 10 11 12 12 12 12 12 12 14 16 19 20 19 18 18 18 19 19 19 20 22
24 22 21 21 21 20 19 20 19 17 15 14 15 16 17 17 17 17 16 15 16 17 16 14 13 14 14 13 13 13 12 12 14 16 17 20 22 22 22 21 20 18 16 14 12 10 8 8 8 8 10 13 13 13 12 13 13 12 11 11 11 11 12 11 12 14 16 16 15 12 9 9 12 16 18 18 18 18 18 18 18 19 21 22 21
23 21 20 20 19 19 19 19 17 15 14 14 15 15 13 14 15 14 12 11 13 15 14 12 14 15 14 13 13 12 12 12 14 15 15 18 20 20 20 20 21 21 19 16 14 12 11 10 11 13 14 14 12 11 11 12 13 13 13 13 13 14 13 12 13 14 15 15 13 8 6 9 14 17 17 17 18 18 18 17 19 21 23 22 20
22 21 20 19 19 19 18 17 16 15 14 16 18 16 13 12 13 13 11 8 8 9 11 13 15 14 13 13 14 13 11 11 13 13 12 13 15 17 18 18 18 19 19 18 16 14 13 14 14 14 14 13 12 11 11 13 15 16 16 17 17 16 15 13 12 13 12 8 5 4 8 11 14 16 16 17 18 17 17 19 20 20 20 20 19
21 19 18 18 18 18 17 17 16 15 14 16 19 19 17 15 13 11 10 8 8 9 12 14 15 14 13 14 15 13 9 9 12 13 12 13 13 14 15 16 15 15 16 18 16 14 13 13 12 11 10 10 10 11 13 15 15 15 14 15 17 16 14 10 6 5 5 3 3 7 10 12 14 16 17 17 17 17 18 19 18 18 19 19 18
19 18 18 20 20 18 17 18 17 15 15 16 17 17 17 17 14 11 10 9 10 11 13 13 14 14 13 12 14 13 11 10 12 14 14 15 15 14 14 16 16 15 15 16 15 12 10 9 9 9 10 10 10 10 11 10 8 8 8 8 6 4 3 1 1 3 4 5 8 11 12 12 14 16 16 15 15 17 18 18 17 18 19 18 16
17 19 22 22 20 17 18 19 17 16 16 17 16 14 14 14 13 12 11 11 11 12 13 13 13 13 12 12 13 13 12 12 12 13 15 15 14 15 16 17 16 16 16 15 12 10 9 9 9 10 10 11 11 9 8 8 7 8 8 6 6 7 5 3 5 8 10 11 13 12 12 13 14 14 13 14 15 17 17 17 18 18 17 16 16
18 22 24 22 19 19 20 19 17 16 17 17 16 15 13 13 14 15 13 12 11 11 11 12 13 13 13 12 13 13 13 13 13 14 15 15 15 16 17 16 15 14 14 13 10 8 7 7 9 9 8 8 8 7 7 7 7 9 10 8 8 9 7 6 8 11 12 12 12 10 10 12 13 13 14 15 16 16 16 16 17 17 16 16 17
21 22 21 21 21 22 21 20 19 18 17 16 16 15 14 12 14 15 14 13 11 11 10 11 12 13 13 12 12 13 14 15 14 14 14 15 15 16 15 14 12 11 11 10 9 7 6 6 8 7 6 5 6 7 7 6 6 7 8 9 9 9 9 10 11 11 10 8 9 10 11 13 14 14 14 15 15 15 16 16 16 16 16 17 18
18 18 18 19 20 21 22 22 21 20 18 18 17 16 15 15 14 14 14 14 13 13 12 13 14 13 13 14 14 14 14 13 13 13 13 13 14 14 13 11 10 9 8 7 7 6 6 6 6 5 5 6 6 7 7 7 6 6 7 9 10 10 11 11 10 11 12 13 12 13 13 14 13 12 13 13 14 14 16 16 16 17 18 18 18
15 15 16 16 17 19 20 19 20 22 21 20 18 17 17 17 17 15 14 14 14 15 15 17 17 15 14 15 15 14 14 13 13 14 13 13 14 13 10 8 8 9 9 8 7 7 6 5 3 3 5 6 5 5 7 8 7 7 8 9 9 9 9 9 9 12 15 16 15 13 12 12 11 11 11 13 14 15 15 15 17 18 19 19 19
14 15 15 14 15 18 17 16 19 22 21 17 15 15 15 14 15 15 15 15 16 15 15 16 16 14 15 17 16 16 16 15 15 14 14 13 14 13 9 6 6 7 9 11 10 7 5 3 1 2 4 5 4 3 5 7 7 8 9 9 9 8 8 8 10 13 14 14 13 12 10 9 10 10 12 13 14 15 15 16 17 18 18 18 18
14 15 16 14 14 16 15 16 18 19 16 13 12 12 13 13 12 13 15 17 16 15 14 14 14 14 17 20 20 19 17 15 13 13 13 13 13 12 9 6 6 6 7 10 9 6 3 2 2 3 4 5 5 5 6 7 7 7 9 10 10 10 10 11 12 12 11 11 10 8 8 9 10 10 11 13 13 15 16 17 18 18 17 18 18
14 15 16 15 14 14 14 15 16 15 13 13 13 12 12 13 12 13 15 14 13 14 15 14 14 17 20 23 23 21 17 13 11 12 12 11 10 9 8 7 8 8 6 6 5 4 3 3 3 5 6 8 9 7 6 7 7 7 9 11 10 9 10 11 12 12 10 8 7 7 8 9 9 10 12 13 14 16 17 17 18 18 17 18 19
13 15 16 13 12 13 13 14 14 14 13 13 14 13 13 12 11 13 14 13 11 13 14 13 15 17 18 19 20 19 15 12 11 12 10 10 10 10 9 9 9 7 6 5 4 4 4 4 5 6 6 8 9 9 7 7 7 8 9 8 6 7 10 11 11 10 8 7 7 7 8 8 9 11 12 13 14 15 16 16 17 18 17 18 18
13 14 13 11 10 12 13 12 13 14 13 12 11 12 12 11 11 12 14 13 12 13 12 11 13 15 15 13 14 16 14 11 11 13 13 12 13 12 10 10 8 6 6 6 4 4 3 4 6 8 8 7 7 8 6 5 6 7 5 4 4 6 10 10 8 8 7 6 6 7 7 8 10 11 12 14 15 14 15 16 17 17 17 17 18
14 13 11 10 11 11 10 10 11 11 10 10 8 8 9 9 9 10 11 11 11 11 11 12 12 15 15 11 11 14 14 10 10 13 15 14 12 10 11 11 8 5 5 4 2 2 2 3 5 7 7 7 8 7 5 5 5 3 3 3 4 8 9 8 8 8 7 6 6 8 8 9 11 11 12 13 14 14 15 17 16 16 16 17 18
13 12 11 11 9 7 7 10 10 8 9 11 12 11 10 10 9 8 9 10 9 10 13 14 14 16 17 14 13 16 15 10 8 8 10 11 10 10 11 11 9 6 6 5 4 4 4 3 4 6 7 7 7 6 5 4 4 3 2 3 5 7 8 7 6 6 6 6 7 9 9 10 11 11 12 13 13 14 16 16 15 16 16 16 17
10 10 10 10 9 7 10 12 11 9 10 13 13 11 10 9 8 8 8 9 9 10 13 15 16 17 17 16 15 14 13 11 9 8 8 10 10 10 10 10 10 9 8 6 5 5 5 3 2 5 7 7 6 4 5 3 2 1 3 4 5 6 6 5 3 3 4 5 7 9 9 11 11 11 12 13 13 14 15 15 15 16 16 15 17
8 8 8 9 9 10 12 13 12 11 12 11 10 9 9 8 8 8 8 8 8 7 10 14 16 15 14 14 13 11 10 10 10 10 9 10 11 12 11 11 10 10 9 6 4 4 4 3 2 4 6 7 5 3 2 0 1 3 6 6 5 5 4 3 2 2 4 5 7 8 9 11 11 12 12 13 13 13 15 15 15 15 15 15 18
8 8 10 11 11 11 13 13 12 12 11 9 8 8 8 8 8 7 7 8 7 5 5 8 12 12 11 10 10 9 8 9 11 11 10 9 9 10 11 12 12 11 9 7 6 5 5 4 3 4 6 6 5 5 3 1 2 5 6 6 7 8 7 6 6 7 8 9 9 10 10 10 11 12 13 13 13 13 15 15 14 14 15 16 18
10 10 12 13 12 11 11 11 11 10 9 9 9 8 7 8 9 8 7 7 7 6 6 6 10 11 11 9 7 6 6 8 9 9 9 10 9 8 9 11 12 11 10 9 9 9 7 6 5 4 6 7 7 6 4 3 4 6 6 7 8 9 9 8 9 10 11 11 10 9 9 9 11 12 12 12 13 13 14 14 13 14 15 17 18
9 10 12 12 12 11 9 9 9 9 9 10 10 9 8 8 8 8 9 9 9 9 9 9 11 13 13 12 11 10 9 9 9 9 9 10 10 9 8 9 10 10 10 10 10 9 9 9 9 7 7 6 6 5 4 4 5 7 7 8 9 9 9 9 10 12 12 11 9 9 8 8 10 11 11 12 13 13 12 12 13 15 16 17 17
7 8 9 9 10 10 10 9 8 8 8 9 11 12 11 11 11 12 13 12 10 7 5 6 7 8 9 11 12 12 12 12 12 11 10 10 10 10 10 10 11 10 10 10 9 9 10 11 11 9 7 6 4 5 6 7 7 8 9 9 9 9 10 10 11 13 13 11 10 10 9 8 8 9 10 11 12 11 11 12 14 15 16 17 16
6 6 7 7 7 7 7 7 7 7 7 7 9 12 13 12 11 11 11 9 6 4 3 4 5 5 4 4 6 8 10 11 10 9 9 9 10 11 12 12 12 13 12 12 10 8 9 10 9 6 5 6 6 7 8 9 9 9 10 10 10 11 12 12 13 14 12 10 11 10 7 6 6 9 10 11 10 10 11 12 13 15 16 15 14
Wind_Direction
191 192 192 193 194 194 196 198 198 199 199 199 200 202 202 202 201 200 198 197 197 197 195 194 195 196 196 196 196 196 196 197 199 200 202 204 203 202 204 207 209 211 209 206 206 208 213 219 225 224 221 226 231 234 237 237 236 237 239 239 241 245 247 246 249 266 272 272 273 276 276 276 275 275 276 275 270 264 260 261 264 266 269 272 275
191 191 191 192 194 194 195 197 198 199 199 201 202 202 203 204 202 201 199 198 198 198 196 195 196 196 197 197 197 197 196 197 198 199 201 203 204 204 206 208 209 212 212 208 206 211 214 216 221 225 227 230 232 233 237 239 237 240 242 243 247 250 250 249 252 264 277 280 279 277 279 282 282 284 287 284 281 277 270 264 262 262 264 266 268
190 190 190 192 193 193 194 195 196 198 199 201 203 203 203 204 203 202 200 199 199 199 198 197 197 198 198 198 197 197 197 197 197 198 200 201 203 204 205 207 209 211 213 210 207 208 212 216 219 225 230 232 234 235 238 239 238 240 243 245 250 255 257 261 266 273 283 289 291 293 296 299 298 296 294 289 285 285 281 276 271 267 264 264 265
189 188 189 192 192 192 193 194 194 195 198 200 202 203 203 202 203 203 202 201 201 201 200 200 199 199 198 198 197 197 197 197 198 199 200 201 203 204 205 205 207 210 211 211 208 208 214 219 221 224 228 231 234 236 236 237 238 240 243 245 248 254 259 263 270 279 287 293 298 302 305 305 301 296 293 291 289 287 282 279 280 277 272 270 269
188 187 188 190 190 191 192 193 194 195 197 200 201 202 202 200 201 203 204 204 204 203 202 201 201 200 199 198 198 197 197 198 198 199 201 202 203 204 206 205 206 208 210 210 210 212 215 220 223 223 227 232 234 235 235 236 237 237 242 249 251 254 259 264 273 279 282 286 291 297 301 299 295 291 290 291 291 289 285 283 283 282 279 277 274
187 185 186 188 189 191 193 193 195 196 198 201 202 203 202 201 202 202 202 204 205 204 202 202 202 202 201 200 200 198 198 198 198 198 199 202 203 204 205 206 207 209 210 210 212 215 216 219 224 225 227 230 231 233 235 235 236 239 244 249 253 258 265 270 276 279 278 280 285 290 294 293 288 285 287 290 290 290 290 288 286 285 285 282 278
186 184 185 188 189 191 193 195 196 197 200 202 203 203 203 204 205 203 201 203 205 204 202 203 205 205 203 202 202 200 199 198 197 196 197 200 202 203 204 204 206 209 211 211 213 218 220 222 227 229 230 231 231 233 234 234 236 241 245 249 254 262 268 272 276 279 280 282 283 284 288 289 284 283 289 292 287 282 283 282 283 288 290 284 279
185 183 185 188 189 191 193 196 198 199 201 203 204 204 205 206 207 204 201 203 207 205 202 203 205 206 205 204 203 202 200 198 198 197 196 198 201 204 204 203 205 207 210 213 216 220 224 225 229 232 232 231 232 233 234 236 239 241 245 250 254 257 265 273 278 280 281 282 283 284 287 287 286 288 292 290 281 276 277 274 277 286 290 286 283
185 182 184 187 189 190 193 196 198 200 201 202 204 205 206 207 207 204 202 204 208 208 205 204 205 205 206 205 204 203 201 199 199 196 195 199 202 204 204 203 205 207 210 214 218 222 227 230 234 237 238 235 232 231 233 234 236 241 245 248 251 255 265 275 280 282 283 282 284 286 286 285 286 290 292 288 285 287 288 282 277 281 286 285 285
184 182 183 186 187 188 191 195 197 199 199 201 203 205 206 207 206 204 203 205 206 208 209 206 202 202 204 204 204 202 200 201 200 195 197 202 203 203 203 202 203 206 210 214 218 224 229 234 241 248 248 242 236 235 236 234 233 238 242 248 255 261 268 274 277 278 280 281 284 285 283 281 284 287 289 291 293 298 302 299 293 294 296 290 286
183 182 182 184 184 186 189 193 195 196 198 199 202 203 204 206 205 204 205 205 204 208 211 207 201 199 200 202 203 201 201 204 201 197 201 206 204 200 200 201 202 205 209 214 219 224 227 230 241 251 250 245 242 241 238 233 232 236 244 253 261 266 268 271 274 275 275 276 279 280 280 281 286 289 290 295 301 307 312 310 303 300 298 293 290
181 181 180 181 182 183 187 190 191 192 195 197 199 201 202 203 203 205 208 208 205 207 212 210 206 203 198 197 199 200 203 206 202 200 205 207 203 200 199 200 203 206 210 216 222 225 227 231 240 248 247 242 243 242 234 230 233 242 251 258 264 267 268 269 271 271 270 270 271 273 275 279 284 287 291 299 308 311 308 303 298 296 294 292 290
179 179 178 178 179 181 184 186 187 189 192 195 196 197 199 201 202 205 210 213 211 210 212 214 213 208 201 198 199 200 203 205 203 205 209 207 201 197 197 199 204 207 212 219 223 226 231 237 242 248 246 234 228 228 230 233 240 248 254 259 264 266 267 269 269 268 266 264 263 266 271 274 278 283 290 298 303 305 304 300 298 296 295 293 290
177 175 176 177 177 180 182 183 184 186 189 191 192 195 197 198 200 203 208 213 214 211 212 213 213 210 205 201 198 196 201 205 205 207 209 205 199 194 194 199 205 208 214 222 226 228 234 242 244 242 234 224 218 222 231 238 243 250 258 263 264 265 270 274 276 274 270 265 261 264 268 271 275 280 286 291 293 295 296 293 292 292 291 290 288
174 174 175 176 176 178 179 180 181 183 184 186 190 194 195 194 196 198 203 207 209 210 211 210 209 209 206 201 195 194 201 205 207 209 209 204 197 195 197 202 206 209 216 226 231 234 241 245 242 235 230 229 226 224 231 237 242 251 260 262 263 268 275 278 279 280 278 271 267 268 271 273 275 276 277 279 283 287 289 288 288 288 286 284 284
172 174 175 175 175 176 176 177 179 178 179 182 186 188 190 191 192 194 199 205 206 208 209 208 205 202 199 196 193 195 199 204 208 210 208 202 199 201 205 209 212 217 224 231 234 239 245 245 242 242 241 235 233 232 234 239 244 248 253 257 261 267 271 273 272 273 275 275 273 271 268 267 267 268 270 277 285 289 287 284 282 279 276 275 277
172 173 174 174 174 175 175 175 174 173 175 178 180 182 185 188 190 192 199 205 205 199 197 197 196 194 193 194 195 196 199 204 207 205 202 200 200 205 212 217 220 224 228 230 232 238 244 244 244 245 240 234 237 240 238 237 237 238 243 250 253 256 261 267 270 272 272 271 271 268 264 264 267 271 276 280 284 284 276 269 269 267 265 266 270
172 172 171 171 172 173 174 173 169 169 172 174 175 180 183 185 187 190 194 199 199 192 185 182 182 185 191 195 196 194 195 198 201 199 198 199 202 208 215 217 219 223 226 229 234 238 239 239 241 243 241 239 238 234 229 231 234 237 240 243 246 252 260 267 274 281 281 272 269 272 273 275 280 283 282 281 281 277 266 261 263 263 260 264 273
169 169 169 169 170 170 170 170 167 167 171 174 176 178 179 180 182 183 186 189 187 181 179 175 174 185 198 202 199 195 189 190 195 197 198 203 210 215 215 213 216 223 226 230 235 235 233 234 236 238 238 236 231 227 231 239 241 239 240 244 249 255 260 262 268 283 295 291 284 281 279 281 284 284 281 280 281 280 271 265 265 263 260 266 273
165 165 166 166 165 165 167 167 166 167 170 172 173 172 173 175 174 169 169 171 166 164 169 171 174 188 203 206 205 203 198 197 203 207 210 215 218 213 211 213 219 225 226 229 229 226 224 227 231 232 227 223 226 233 242 249 247 241 239 244 249 252 254 258 266 277 286 285 282 282 281 280 279 278 279 282 287 290 284 275 269 263 259 264 274
160 160 161 160 159 161 162 162 164 166 169 169 165 165 169 171 168 161 156 161 169 168 168 173 181 190 199 201 204 209 210 209 212 216 218 221 216 208 209 215 219 221 228 233 227 221 220 223 228 229 226 227 236 243 247 252 250 243 241 245 251 256 260 266 273 279 282 281 282 285 284 283 283 283 287 290 293 297 301 299 288 274 272 286 303
153 152 153 153 154 156 156 158 161 164 165 165 162 163 166 167 168 168 165 171 181 180 180 186 190 193 200 203 206 213 215 211 213 216 215 214 211 209 211 215 216 221 234 238 228 222 223 225 226 229 232 238 243 242 242 247 247 246 252 258 262 265 268 272 275 277 279 281 284 285 284 287 291 292 293 296 300 304 305 304 298 293 295 303 307
144 144 145 146 148 150 151 154 159 159 160 161 159 159 160 160 165 169 169 173 178 176 181 190 193 197 206 209 211 215 212 208 211 215 213 210 211 212 215 217 217 222 234 237 227 220 219 218 220 228 237 240 237 235 237 241 245 253 264 268 271 272 272 273 275 278 283 283 280 279 281 287 291 294 299 305 305 304 303 301 299 298 299 298 297
137 136 138 138 140 145 148 152 155 156 157 158 156 153 152 153 158 161 165 176 181 180 184 192 198 204 204 199 198 202 201 201 206 212 214 215 215 217 219 219 219 223 232 235 223 215 217 223 227 233 235 229 225 227 232 239 251 267 274 273 272 271 271 274 279 283 282 274 271 276 286 297 304 306 309 309 306 304 305 304 302 300 297 295 294
132 132 134 135 138 143 147 150 151 152 155 157 155 151 148 150 155 158 168 184 190 190 190 193 202 206 194 178 179 185 186 189 196 203 210 213 212 212 214 217 222 226 227 220 211 211 219 227 223 218 215 212 217 230 243 255 266 272 271 266 263 267 276 279 278 274 269 268 279 297 309 316 317 312 306 304 305 307 305 302 299 297 296 297 298
130 132 134 137 141 143 142 144 147 150 152 154 152 150 149 151 155 164 181 195 197 195 193 194 200 199 184 175 177 177 175 176 182 189 196 198 201 205 207 211 218 220 215 206 203 207 214 211 202 200 207 223 242 253 262 269 271 268 264 261 259 261 267 265 257 254 255 257 271 291 302 304 301 299 302 304 303 303 301 298 299 299 301 304 303
129 130 132 135 138 138 135 135 139 142 145 146 145 147 151 156 161 172 188 198 198 197 199 200 197 188 180 179 174 167 168 175 180 185 188 193 198 200 199 202 208 208 205 205 204 202 205 207 207 217 240 256 261 263 263 263 264 265 263 261 258 253 254 254 242 234 239 250 264 277 286 288 289 295 302 303 301 301 303 302 301 300 302 303 300
123 123 124 125 127 130 132 132 133 134 138 141 144 148 157 166 171 179 191 198 197 200 206 203 188 179 180 179 170 164 167 175 184 191 195 198 199 196 193 198 203 202 203 208 211 213 216 222 230 241 251 253 250 248 247 249 254 258 256 254 250 244 246 248 236 231 245 263 271 272 277 288 297 302 303 301 300 302 304 303 301 301 302 299 292
121 121 122 123 126 131 134 133 133 133 132 135 139 142 155 167 169 170 178 187 195 205 207 189 172 173 177 173 167 170 179 187 197 203 202 199 199 197 194 197 203 204 203 203 207 209 209 220 231 232 232 232 229 228 232 238 244 246 242 242 244 242 239 237 235 245 259 262 255 256 287 306 306 304 300 299 300 302 304 305 304 301 298 293 287
123 126 132 137 139 142 141 140 142 142 138 137 136 130 129 140 150 155 159 160 176 196 188 169 163 167 171 169 169 176 189 199 202 201 195 193 197 199 196 195 201 204 199 197 202 203 199 208 222 226 222 218 212 213 223 229 230 232 232 232 234 237 239 242 252 268 273 258 238 288 314 310 305 303 300 298 298 301 305 305 301 298 297 294 292
130 137 143 144 144 147 147 148 151 149 144 145 143 133 123 121 127 138 144 141 148 164 167 165 169 173 177 181 184 186 194 201 196 189 183 181 183 186 189 189 191 194 196 199 209 217 212 217 233 247 252 248 234 228 235 235 231 232 235 233 231 233 234 234 246 279 287 291 326 319 311 306 303 300 295 294 297 303 306 304 302 302 300 298 298
142 146 144 142 147 152 148 147 153 150 140 145 151 145 135 127 121 122 132 139 146 153 155 158 167 175 182 192 195 193 189 186 185 181 175 173 172 173 180 185 188 194 199 201 209 223 231 242 259 266 270 273 267 261 269 271 262 262 266 258 257 271 262 195 63 355 334 326 320 312 305 300 293 288 290 297 304 307 305 304 307 307 303 303 308
149 142 138 142 152 153 143 143 150 149 144 149 158 160 153 144 134 128 130 137 146 151 151 152 160 169 177 187 195 197 186 176 176 175 170 170 171 170 174 181 185 190 192 192 202 223 236 247 260 262 263 269 271 280 310 337 345 334 325 327 342 348 354 17 7 351 337 323 312 302 292 289 290 294 302 308 306 303 304 308 311 309 308 313 318
139 136 140 147 148 142 139 143 150 154 156 157 162 170 175 168 158 150 143 140 145 152 155 158 165 172 178 184 193 198 188 177 175 175 172 173 175 175 176 178 179 184 190 195 210 234 242 249 266 278 285 289 296 318 344 356 352 342 342 346 341 329 330 349 351 340 327 315 306 298 295 302 307 306 305 303 301 302 308 311 311 312 318 322 319
129 135 143 146 142 139 145 152 155 160 163 162 167 178 182 176 169 164 161 160 157 150 150 158 164 171 175 175 176 179 177 173 173 176 178 181 183 183 181 179 180 187 196 204 216 234 247 262 279 298 325 346 352 354 351 340 335 339 345 346 342 340 345 352 348 341 333 322 312 309 308 306 301 298 298 301 305 309 313 313 314 320 324 321 316
130 137 143 148 148 151 158 161 160 159 160 163 172 180 179 177 176 173 172 173 161 145 146 155 157 160 166 168 167 168 170 172 175 177 181 184 184 181 178 177 180 182 186 195 205 212 228 254 279 307 339 352 354 352 345 335 332 340 342 335 331 331 334 336 338 335 328 319 310 304 297 291 292 297 302 306 311 314 314 316 322 325 320 316 314
133 140 151 160 160 158 159 160 157 157 161 168 178 181 178 178 176 170 170 168 151 139 146 154 152 151 158 164 168 169 169 172 176 175 176 178 178 177 178 187 191 183 179 186 194 199 217 246 281 323 325 321 326 343 354 353 345 342 343 339 332 328 330 328 314 304 304 304 299 288 281 285 297 306 310 312 315 316 316 321 325 320 316 317 318
148 155 163 164 155 148 147 144 144 152 162 173 180 179 175 176 174 166 160 152 140 138 150 156 153 153 157 160 164 166 165 165 166 167 170 174 177 182 190 205 216 205 190 189 198 207 214 216 219 281 297 300 297 303 336 347 342 334 338 342 337 329 327 320 299 282 273 273 275 275 283 301 310 313 316 317 316 317 322 325 320 315 317 322 322
157 162 162 156 146 141 141 140 141 149 161 170 174 174 171 173 175 164 151 145 143 145 153 158 158 159 161 161 161 160 160 158 158 163 172 177 184 193 199 207 233 240 207 188 193 201 191 182 220 254 271 285 285 272 276 291 301 312 322 321 315 310 308 308 303 289 268 262 274 293 309 313 312 315 320 319 318 319 320 317 314 315 321 323 322
147 151 149 149 149 146 145 146 150 158 168 171 174 174 172 175 174 159 150 154 155 152 157 165 164 163 167 170 166 161 160 162 164 167 171 177 186 196 200 208 228 237 214 177 167 163 161 192 248 256 254 262 265 258 252 258 268 285 290 284 283 296 303 298 295 292 286 285 300 311 308 307 316 324 322 317 315 314 312 312 317 321 323 323 324
140 146 146 148 153 152 151 156 164 174 178 175 174 173 170 173 170 157 155 166 166 157 163 171 163 161 173 180 174 167 163 163 168 170 169 177 188 192 199 215 222 214 192 181 181 188 206 235 256 258 255 252 245 236 231 238 250 262 273 278 289 303 297 284 279 284 290 295 302 304 306 316 325 322 314 312 312 313 315 319 321 321 323 326 327
151 154 153 152 154 158 163 169 174 177 173 169 169 168 165 166 165 157 157 167 168 164 165 163 157 165 176 177 173 172 167 165 175 179 178 185 192 188 193 212 215 182 166 173 173 183 221 255 265 268 274 276 267 260 265 280 282 282 301 348 346 307 293 291 297 306 310 310 311 316 324 325 319 313 312 313 315 318 322 320 319 321 326 328 327
156 159 164 165 167 170 171 168 166 166 159 151 151 156 159 163 164 159 159 165 168 161 149 141 151 169 171 160 162 173 176 182 199 194 185 188 193 187 188 202 207 180 171 182 179 183 240 278 288 290 298 302 297 298 319 341 337 343 28 19 324 298 295 299 303 309 319 328 332 334 330 321 315 313 315 317 319 321 321 318 319 325 328 328 329
154 163 171 172 173 166 145 140 141 141 138 140 146 155 160 161 162 161 161 163 164 156 146 146 158 170 168 162 170 181 186 200 224 212 192 189 191 190 190 194 192 179 177 190 195 194 209 261 302 314 319 318 311 303 304 320 344 5 7 316 285 281 288 292 297 316 341 345 337 330 321 315 315 316 316 318 321 320 318 318 322 324 326 330 332
157 164 164 160 153 134 124 129 131 130 132 138 144 149 152 156 160 163 166 168 170 162 152 153 162 167 166 168 177 188 196 206 215 217 208 195 191 196 197 187 179 181 188 191 183 173 175 202 277 301 305 309 310 287 265 273 332 321 277 274 273 277 289 301 314 348 359 347 333 325 317 314 317 317 314 316 317 315 316 320 321 322 328 334 330
161 163 157 147 138 132 132 136 138 139 141 142 144 149 156 161 164 168 173 176 178 171 157 154 158 162 167 173 183 194 205 206 204 210 212 202 198 203 200 185 177 184 193 198 190 173 181 214 273 293 296 309 326 316 262 229 19 267 254 252 255 261 262 251 252 295 326 325 318 313 309 311 313 311 310 312 314 316 317 318 318 324 332 332 325
145 142 136 130 126 128 134 139 144 147 149 151 153 158 161 157 156 166 171 162 157 168 170 156 153 159 170 181 190 198 204 204 206 210 210 208 212 211 197 187 185 186 188 196 196 186 187 202 224 254 270 282 296 302 305 333 305 274 254 229 224 232 238 243 262 290 303 301 297 295 299 306 309 307 309 314 315 314 316 317 321 330 332 326 321
130 127 125 122 122 128 136 144 150 153 156 159 160 159 154 147 151 161 161 146 148 180 199 175 162 170 182 189 190 189 189 197 209 213 210 213 224 219 196 190 194 192 188 191 193 191 195 202 209 235 254 249 242 245 260 281 274 262 246 225 224 235 246 257 278 301 309 308 307 305 301 301 302 300 304 310 309 309 314 320 325 329 326 320 319
134 137 136 132 133 142 151 155 158 164 167 164 156 146 140 146 159 169 168 166 178 198 204 190 177 177 180 180 180 181 183 191 204 214 213 215 223 221 206 200 202 200 196 193 195 204 216 218 218 229 241 235 220 216 224 242 248 245 239 237 240 250 259 270 291 310 316 317 317 308 294 290 296 298 301 305 306 308 317 324 325 324 320 316 319
130 137 144 146 150 156 159 161 167 176 174 162 154 154 166 184 191 184 178 182 192 201 203 200 198 196 189 181 178 179 180 184 195 205 207 207 213 219 217 212 210 209 208 205 206 213 214 207 204 211 220 221 228 244 243 232 223 225 235 243 250 260 270 282 300 312 315 318 319 310 291 279 287 296 300 303 307 315 323 325 321 318 314 314 320
136 139 149 156 156 153 151 158 168 170 171 172 170 169 180 196 196 176 167 177 191 195 206 219 224 232 233 207 187 186 186 189 199 213 213 204 204 214 223 223 216 210 208 210 214 219 214 206 208 224 232 218 221 240 245 232 219 224 240 251 260 270 278 289 302 308 310 316 322 314 292 271 281 294 299 304 311 317 319 319 318 316 312 315 325
Height
735 738 741 744 747 750 753 756 759 762 765 767 769 770 772 774 776 778 780 783 785 787 789 790 792 795 797 799 801 802 804 806 808 810 812 813 814 816 817 818 819 820 820 820 821 823 824 825 826 826 826 827 827 828 829 829 830 830 830 830 831 831 831 831 831 829 828 829 829 828 828 828 827 826 825 824 824 824 824 823 823 822 822 821 820
730 733 736 740 743 746 749 752 755 759 761 763 764 766 768 770 772 775 777 779 781 783 785 787 789 792 794 796 797 799 801 803 805 806 808 810 811 813 814 815 816 817 818 819 819 820 821 822 823 824 825 825 825 826 827 827 828 828 828 828 828 829 829 828 828 827 826 826 827 827 827 826 825 824 823 823 823 822 822 821 820 820 819 818 818
726 729 733 736 739 742 746 748 751 754 757 758 760 762 765 767 770 772 774 776 778 779 781 783 785 787 789 791 793 795 797 799 801 803 804 806 808 809 810 812 813 814 815 816 817 818 819 819 820 822 822 823 823 823 824 825 825 825 825 825 826 826 826 826 826 825 824 823 823 824 824 823 822 822 822 822 821 821 820 819 818 817 816 815 815
722 725 729 732 736 739 742 744 747 750 752 754 755 758 761 764 766 768 770 772 774 775 777 779 781 782 784 786 788 790 792 794 797 799 800 802 804 805 807 808 810 811 813 814 815 816 816 817 818 819 820 820 820 821 822 822 822 823 823 823 824 824 824 824 824 823 822 821 820 820 820 820 819 819 820 820 819 818 817 816 815 814 813 813 812
718 721 724 728 732 734 737 740 743 745 747 749 751 755 758 760 762 764 766 768 770 771 773 775 777 778 780 782 784 785 787 789 792 794 796 798 800 802 804 805 807 809 810 812 813 814 814 815 816 816 817 817 818 819 820 820 821 821 821 822 822 822 822 822 822 821 821 820 818 818 818 818 817 817 818 817 816 815 814 813 812 811 811 810 809
713 716 720 724 727 730 733 736 738 740 742 745 747 751 754 756 758 760 762 764 766 768 769 771 773 774 776 778 780 781 783 784 787 789 792 794 797 799 800 802 804 806 808 809 811 811 812 812 813 814 814 815 815 817 818 818 819 819 820 820 820 820 819 819 819 819 819 818 817 816 816 816 815 815 815 815 813 812 810 810 809 809 808 807 807
708 712 715 718 722 725 728 731 733 736 738 741 744 747 749 752 753 755 758 760 763 764 765 767 769 771 773 774 776 778 779 781 783 786 788 791 793 796 797 799 801 803 805 807 808 809 810 810 811 811 812 812 813 814 815 816 817 817 818 818 818 818 817 817 817 817 817 816 816 815 814 814 813 812 812 812 811 810 809 808 807 807 806 805 804
703 707 711 714 717 720 723 726 729 732 734 737 740 743 745 748 749 751 754 757 759 761 762 764 765 767 769 771 773 775 777 779 780 783 786 788 791 793 794 796 798 800 803 804 805 807 808 808 808 809 809 810 811 812 813 814 815 815 816 816 816 815 815 815 815 815 815 814 813 813 812 811 810 810 809 809 808 807 806 806 805 804 803 803 802
699 703 706 710 713 716 720 723 725 728 731 733 736 739 741 744 746 748 751 754 756 759 760 762 763 765 767 769 772 773 775 777 778 781 785 787 788 790 792 793 795 797 800 801 802 804 805 806 806 807 807 807 808 810 811 812 813 813 813 813 813 813 813 813 813 812 812 812 811 810 810 809 808 808 807 807 806 805 804 804 803 802 801 800 799
695 699 702 706 710 713 716 720 722 725 727 730 732 735 738 741 743 746 748 750 753 756 758 760 761 763 765 768 770 772 773 776 777 780 783 785 785 787 788 790 792 795 796 798 800 801 802 804 805 807 808 806 806 807 808 810 810 811 811 811 811 810 810 810 810 810 810 809 809 808 807 806 806 806 805 805 805 804 803 802 801 800 799 798 796
692 695 698 702 706 710 713 716 719 721 724 726 729 732 735 738 740 743 746 748 750 753 755 756 758 760 763 766 768 770 771 773 774 775 778 781 782 784 786 788 790 792 794 796 798 798 800 801 803 805 806 805 804 805 806 807 808 808 808 808 808 808 807 807 807 807 807 807 807 806 805 804 803 804 803 803 803 802 802 801 800 799 798 796 794
688 692 695 699 703 706 710 713 715 718 721 724 727 730 733 736 738 741 743 745 747 749 752 753 755 757 759 762 765 767 769 770 771 773 775 777 780 782 784 787 788 790 792 794 796 797 798 799 800 801 802 802 803 804 804 805 806 806 806 806 806 805 805 805 805 805 805 805 804 803 802 801 801 801 801 801 800 800 800 799 798 797 796 795 793
685 688 692 696 699 702 706 709 712 716 718 722 725 728 731 733 736 739 741 743 745 747 749 751 753 755 757 759 762 764 767 768 769 771 773 776 779 781 784 786 788 789 791 792 793 795 796 797 798 799 800 800 801 802 802 803 804 804 804 803 803 803 803 803 803 803 803 802 801 800 799 799 799 799 799 799 799 798 797 797 796 795 794 793 791
682 685 689 693 696 700 704 707 710 714 716 720 723 725 728 731 733 737 739 742 743 745 747 749 751 753 755 757 759 762 764 766 767 769 772 774 778 780 782 785 787 788 789 790 791 793 795 795 796 797 797 797 798 799 799 801 801 801 801 801 800 800 800 800 800 800 799 799 798 797 797 797 797 797 797 797 797 796 796 795 794 793 791 790 789
679 683 687 690 694 698 701 704 708 711 714 718 720 723 726 729 732 735 737 739 741 742 744 747 749 752 753 755 757 759 761 763 766 768 770 772 775 778 780 782 784 786 787 788 790 792 793 793 794 795 796 796 795 796 797 798 798 798 799 798 798 798 798 797 797 797 796 795 795 795 795 795 795 795 795 795 795 794 794 793 792 790 788 787 785
677 681 684 688 692 695 699 703 706 709 712 716 719 722 725 727 730 733 735 738 740 740 743 745 747 750 752 754 756 757 760 762 764 766 768 770 773 776 778 780 781 783 784 786 788 789 790 790 791 793 794 794 793 794 795 796 796 796 796 796 797 796 796 796 796 795 794 793 793 792 792 793 793 793 793 793 792 792 791 790 789 787 785 784 782
675 679 682 686 690 694 697 701 704 708 711 714 718 721 724 727 729 732 735 737 739 740 741 743 746 748 751 753 755 756 758 759 761 763 765 768 770 773 776 778 779 780 782 783 785 786 786 788 789 790 791 791 791 791 793 794 794 794 795 795 795 795 794 794 794 793 792 791 791 791 790 791 791 791 791 790 790 789 789 787 785 783 782 781 779
674 678 682 686 689 693 697 700 703 707 710 713 717 720 723 727 729 731 734 737 738 739 740 742 745 747 749 752 754 754 755 757 758 760 762 765 768 770 773 775 776 778 779 780 782 783 783 784 786 787 788 788 789 790 791 792 793 793 794 794 794 793 793 792 792 791 790 789 789 789 789 789 789 788 788 788 787 786 785 783 781 780 780 779 776
673 676 681 685 689 692 695 699 702 706 709 713 716 719 722 725 728 730 734 736 738 739 740 742 745 746 749 752 752 752 754 755 757 759 761 763 765 767 770 772 774 775 777 778 779 780 780 781 782 784 785 785 787 789 790 791 791 792 792 792 792 792 791 790 790 789 789 788 788 788 787 787 786 786 785 784 783 782 781 779 779 779 778 777 775
671 676 680 684 687 691 694 698 701 704 708 712 714 717 720 723 726 729 732 735 737 739 740 742 744 746 748 750 751 751 752 754 756 758 760 762 763 765 768 770 772 773 775 776 776 776 777 778 779 781 782 783 785 787 788 789 789 790 791 791 791 790 789 789 788 788 787 787 786 786 785 785 784 783 782 781 780 780 779 777 777 777 776 774 773
669 674 678 682 686 690 693 697 700 704 708 711 713 717 719 722 725 727 731 734 736 738 741 743 744 746 747 749 750 750 751 753 755 757 759 760 762 764 766 768 770 772 773 774 774 774 774 775 777 778 779 781 783 784 786 787 787 788 789 789 788 787 787 787 786 786 786 785 784 784 783 782 782 781 781 780 779 778 777 776 776 775 774 772 771
668 672 676 681 685 689 693 697 701 705 708 710 713 716 719 721 724 727 730 733 735 738 741 743 744 746 746 747 748 749 750 752 753 755 756 758 760 762 764 766 768 770 771 771 771 772 773 773 774 776 778 779 781 782 784 785 785 786 787 786 785 785 784 784 784 784 783 783 782 782 781 781 780 780 779 778 777 777 776 775 774 773 772 771 770
666 671 675 680 684 688 692 696 700 703 706 708 712 715 718 721 723 726 730 733 736 738 740 742 744 745 745 746 747 748 749 750 751 752 754 756 758 760 762 764 766 767 767 768 768 770 771 771 773 774 776 778 779 780 782 783 783 784 784 783 782 782 782 781 781 781 781 780 780 780 779 779 778 777 777 776 776 775 774 773 772 771 770 769 768
666 670 675 679 683 687 691 695 698 700 703 707 710 714 718 721 724 727 731 733 736 738 740 742 743 742 743 744 745 746 747 747 749 750 751 753 756 757 760 762 763 764 765 766 766 768 769 770 771 773 775 776 778 779 780 781 781 781 780 780 779 779 779 778 778 778 778 778 778 778 777 777 776 776 775 775 774 773 772 771 770 769 768 767 765
666 670 675 679 683 687 691 694 696 699 702 705 708 711 716 721 725 728 731 733 735 737 738 740 740 740 741 742 743 744 745 746 747 748 749 751 753 755 757 759 760 762 763 764 765 766 767 769 771 772 774 775 777 778 778 779 778 777 777 776 776 776 776 775 775 776 776 776 776 776 775 775 775 774 774 773 772 771 770 769 768 767 766 764 763
667 671 675 679 683 687 690 693 696 699 701 703 705 708 713 719 724 728 731 733 735 735 736 737 737 738 739 741 742 743 744 745 745 746 748 750 751 753 755 756 758 760 761 762 763 765 766 768 770 771 773 774 775 776 776 775 775 774 774 774 774 774 773 773 774 774 774 774 773 773 773 773 773 773 772 771 770 769 768 767 765 764 763 762 760
667 672 677 681 684 687 691 694 698 701 703 705 707 709 712 717 722 727 729 731 732 733 734 734 735 736 738 740 741 743 743 744 744 745 746 748 749 750 752 754 756 758 760 761 763 764 766 768 769 770 772 773 773 773 773 772 772 772 772 772 772 772 772 772 772 772 772 771 770 770 770 771 771 771 770 769 768 768 767 766 764 762 761 760 758
669 674 678 682 686 690 693 696 699 702 705 707 709 711 713 716 721 724 727 729 730 730 731 732 733 735 737 739 740 741 742 743 743 743 745 745 746 748 750 752 754 756 759 761 762 764 766 767 768 769 770 770 770 770 770 770 770 770 770 770 770 770 770 770 770 770 769 769 768 768 768 769 769 769 768 767 766 766 765 764 762 761 759 758 756
671 676 680 684 688 692 695 697 699 702 705 708 710 712 714 716 719 722 725 726 727 728 729 730 732 734 736 738 739 740 741 742 742 742 743 744 745 747 749 751 752 754 757 759 761 763 765 766 767 767 767 767 768 767 768 768 768 768 768 768 768 768 768 768 767 767 767 767 766 767 766 767 767 767 767 766 765 764 764 762 761 759 757 756 753
673 677 681 686 690 693 695 697 700 703 706 708 710 712 715 717 719 721 723 725 726 727 729 730 732 734 735 737 738 739 740 740 740 742 743 744 745 746 748 750 751 753 756 758 761 762 763 764 765 764 764 765 765 765 765 765 765 766 766 766 766 766 765 765 765 765 766 765 765 765 765 765 766 766 765 764 763 763 762 760 759 757 755 753 751
674 678 682 686 689 691 693 696 700 704 707 709 711 713 715 717 719 721 723 725 726 727 728 730 732 733 735 736 738 738 739 739 740 741 743 745 746 746 747 750 752 754 756 758 760 761 761 762 762 762 762 762 762 763 763 763 762 763 763 763 763 763 763 764 764 764 765 765 764 764 765 765 765 765 764 763 762 761 760 758 757 755 753 751 749
674 677 681 684 687 689 692 696 700 703 706 709 712 714 715 717 719 721 723 724 726 727 728 730 731 733 734 736 737 737 738 739 740 740 742 744 745 746 748 750 752 754 756 757 759 760 760 760 760 760 761 761 760 761 761 760 760 761 761 761 762 762 762 762 763 764 764 764 764 764 764 764 764 763 762 762 761 759 758 756 755 753 751 749 748
673 677 680 683 686 689 693 697 700 702 704 707 711 714 716 716 717 720 723 725 726 728 728 730 731 732 734 735 735 736 737 738 739 740 741 743 744 746 747 750 752 754 755 757 758 758 759 759 759 759 759 759 759 759 759 759 759 760 760 760 761 761 762 761 762 762 763 763 763 763 763 763 763 762 761 761 760 758 756 755 754 752 750 748 747
674 677 680 682 685 689 693 697 700 702 702 704 708 712 715 715 716 719 722 724 726 728 729 730 731 732 733 734 735 736 737 737 739 740 741 742 744 746 748 749 751 753 755 756 757 757 757 758 758 758 758 758 758 758 758 759 759 760 760 760 760 761 761 760 760 761 762 762 763 763 763 763 762 761 760 759 758 757 755 754 752 750 749 747 745
676 679 682 683 685 688 692 695 698 700 702 703 706 710 713 714 715 717 720 722 724 726 728 730 730 731 733 733 735 736 737 738 739 741 742 743 745 746 748 749 751 753 754 755 755 756 756 757 757 757 758 758 758 758 758 759 759 759 760 760 760 760 760 760 760 761 762 762 763 763 763 762 761 760 760 758 757 756 754 753 751 749 748 746 744
679 682 685 686 687 689 691 693 695 697 700 702 705 708 710 711 714 716 718 720 722 724 727 728 730 731 732 733 735 736 737 738 740 741 742 744 745 746 748 749 750 751 752 753 754 754 755 756 756 757 757 757 758 758 759 759 759 759 759 759 759 760 760 760 761 762 762 763 763 762 762 761 760 759 758 757 756 755 753 752 751 749 747 745 743
680 683 685 687 689 690 691 691 693 695 698 701 703 706 707 710 712 713 716 718 720 722 725 727 728 730 732 733 735 736 737 739 740 741 742 744 745 746 748 748 749 750 751 752 753 753 754 755 755 756 756 757 758 758 758 759 759 759 759 759 759 759 759 760 761 762 763 763 762 761 761 760 759 759 758 757 756 754 753 751 750 748 746 744 742
682 684 686 688 689 690 690 691 692 695 698 700 702 704 706 708 710 711 714 716 719 721 724 726 727 729 730 732 734 736 737 739 740 741 742 744 745 746 747 747 748 749 749 750 752 752 753 754 754 755 756 757 757 757 758 758 759 759 758 759 759 759 760 760 761 761 762 761 761 760 760 759 759 758 757 756 755 754 752 751 749 747 745 743 741
684 685 687 688 689 689 690 691 693 695 698 700 702 703 705 707 708 710 712 715 718 720 723 725 726 728 729 731 733 735 737 738 739 740 742 743 744 745 746 746 747 748 748 749 750 751 752 753 754 755 756 756 756 756 757 757 758 758 758 759 759 759 760 760 760 760 760 760 759 759 759 759 758 758 757 756 755 753 752 750 748 746 744 742 740
684 686 688 689 689 690 691 693 694 696 698 699 701 703 704 706 708 709 712 714 716 718 721 724 725 726 727 729 731 733 735 737 738 739 741 742 743 744 745 745 746 747 747 748 749 750 751 753 753 754 755 755 755 755 756 756 757 757 758 758 758 759 760 760 760 760 759 759 759 759 759 758 758 757 757 755 754 753 751 749 747 746 744 742 740
685 687 688 689 690 691 692 694 695 696 698 699 701 702 704 705 707 709 711 714 715 717 720 722 723 724 726 728 729 731 733 735 736 738 739 740 741 742 743 745 745 746 747 748 748 749 751 752 752 753 753 753 754 755 755 755 755 756 757 757 757 759 760 760 759 759 758 758 759 758 758 758 757 757 756 755 753 752 750 749 747 745 743 742 740
686 687 688 689 690 691 693 694 695 696 697 699 700 702 704 705 706 709 711 713 715 717 719 721 722 724 725 727 728 730 732 733 735 736 737 739 740 741 742 744 744 745 746 747 748 749 750 751 752 752 753 753 754 754 754 755 755 755 756 756 757 759 760 759 759 758 758 758 758 758 757 757 757 756 755 754 752 751 749 748 747 745 743 741 739
686 687 688 689 690 692 693 694 695 696 698 699 701 703 705 706 707 709 711 713 715 717 719 721 722 723 725 727 728 730 731 732 734 735 736 737 738 739 741 743 744 744 746 746 747 748 749 750 751 752 752 752 753 753 753 754 754 755 755 756 758 759 759 759 759 759 758 758 758 758 757 757 756 755 754 753 752 751 749 748 746 744 743 741 739
685 687 688 689 691 693 693 694 695 697 698 699 702 704 705 706 707 709 710 713 715 716 719 721 722 723 725 727 728 729 730 732 732 733 734 735 737 738 740 741 742 743 745 746 746 747 748 750 751 751 752 752 752 752 753 754 754 755 756 757 758 759 759 759 759 758 758 758 758 758 757 757 756 755 754 752 751 750 749 747 746 744 742 741 739
686 687 688 689 691 693 694 694 696 699 700 700 702 704 705 706 708 709 711 713 714 716 718 720 721 723 724 726 727 729 730 730 731 732 733 734 736 737 738 739 741 742 744 745 746 747 748 749 750 751 752 752 752 753 753 753 754 755 757 757 758 758 758 758 758 757 757 758 758 757 757 756 755 754 753 752 751 750 748 747 745 743 742 740 738
687 687 688 689 691 693 694 696 698 700 701 701 703 704 705 706 708 709 711 713 714 715 717 719 721 723 724 725 727 728 729 730 731 731 732 733 735 736 737 738 739 741 743 744 745 746 747 749 750 751 752 752 752 752 753 753 754 756 757 757 757 758 757 757 757 757 757 757 757 757 756 755 754 754 753 751 750 749 748 746 745 743 741 740 738
687 688 689 690 691 693 695 696 698 699 700 702 703 704 705 707 708 710 712 713 714 716 717 718 721 722 724 725 726 726 727 729 730 730 732 733 734 735 736 737 738 740 742 743 744 745 746 748 749 750 751 752 752 752 752 753 754 756 756 756 756 756 756 756 757 757 757 756 756 755 755 754 753 753 752 751 750 749 747 746 744 743 741 740 737
688 689 689 691 692 695 696 697 698 699 700 702 704 705 706 707 709 710 712 713 714 716 717 718 720 721 722 723 724 725 727 728 729 730 731 732 733 734 735 736 737 739 740 741 743 744 745 746 748 749 749 750 750 751 751 752 754 755 755 754 755 755 756 756 756 756 756 755 754 754 753 753 752 752 751 750 749 748 746 745 744 743 741 739 737
689 689 690 692 694 695 696 697 698 699 700 702 704 706 707 709 710 711 712 713 714 714 715 716 718 719 720 721 723 724 726 727 728 730 731 732 733 734 734 735 737 738 738 740 741 742 743 745 746 747 748 748 749 749 750 752 753 754 753 754 754 755 755 755 755 755 755 754 753 752 752 751 751 751 750 749 748 747 746 745 744 742 741 738 736
690 690 691 693 694 695 696 697 698 699 700 702 704 706 708 709 709 709 710 712 712 713 714 715 716 717 718 719 721 722 724 725 727 728 729 730 732 733 734 734 735 736 738 739 740 740 741 743 744 745 746 747 748 749 750 750 752 752 752 753 754 754 754 754 754 754 753 753 752 751 750 750 750 750 749 748 747 746 745 744 743 742 740 738 736
691 692 692 693 694 695 696 697 699 700 702 703 704 705 706 707 707 707 709 710 711 712 713 714 715 716 718 719 720 721 722 723 725 726 727 729 730 731 733 733 734 735 736 738 739 739 740 741 742 744 745 745 746 748 749 749 749 750 751 752 753 753 753 753 753 753 752 752 751 750 749 749 749 749 748 747 747 746 745 744 743 741 739 738 736